"Period start","avg(HW err(1)/warn(2) (#))","avg(Visibility (m))","avg(Weather code (#))","avg(Precip intensity (mm/h))","min(HW err(1)/warn(2) (#))","max(HW err(1)/warn(2) (#))","std(HW err(1)/warn(2) (#))","med(HW err(1)/warn(2) (#))","min(Visibility (m))","max(Visibility (m))","std(Visibility (m))","med(Visibility (m))","min(Weather code (#))","max(Weather code (#))","std(Weather code (#))","med(Weather code (#))","min(Precip intensity (mm/h))","max(Precip intensity (mm/h))","std(Precip intensity (mm/h))","med(Precip intensity (mm/h))"
2014-04-14 00:00:00,1,,,,1,1,0,1,,,,,,,,,,,,
2014-04-14 00:10:00,1,,,,1,1,0,1,,,,,,,,,,,,
2014-04-14 00:20:00,1,,,,1,1,0,1,,,,,,,,,,,,
2014-04-14 00:30:00,1,,,,1,1,0,1,,,,,,,,,,,,
2014-04-14 00:40:00,1,,,,1,1,0,1,,,,,,,,,,,,
2014-04-14 00:50:00,1,,,,1,1,0,1,,,,,,,,,,,,
2014-04-14 01:00:00,1,,,,1,1,0,1,,,,,,,,,,,,
2014-04-14 01:10:00,1,,,,1,1,0,1,,,,,,,,,,,,
2014-04-14 01:20:00,1,554,71,1.47,1,2,0,1,0,1410,614,251,71,71,0,71,0.30,2.80,1.03,1.30
2014-04-14 01:30:00,2,1385,71,0.67,1,2,0,2,740,1897,336,1503,71,71,0,71,0.00,4.50,1.37,0.15
2014-04-14 01:40:00,2,1212,73,0.18,2,2,0,2,567,1850,358,1276,71,77,3,71,0.05,0.55,0.19,0.08
2014-04-14 01:50:00,2,1336,72,0.25,2,2,0,2,727,2340,512,1112,71,77,2,71,0.00,0.70,0.26,0.12
2014-04-14 02:00:00,2,758,71,0.70,2,2,0,2,412,1061,183,752,71,71,0,71,0.15,1.65,0.52,0.60
2014-04-14 02:10:00,2,676,71,0.93,2,2,0,2,339,941,164,716,71,72,0,71,0.20,3.05,0.75,0.80
2014-04-14 02:20:00,2,463,72,1.71,2,2,0,2,343,706,108,448,72,72,0,72,0.25,3.70,0.97,1.60
2014-04-14 02:30:00,2,591,72,0.92,2,2,0,2,319,986,193,596,71,72,0,72,0.25,2.15,0.63,0.70
2014-04-14 02:40:00,2,1066,69,0.15,2,2,0,2,718,1440,225,1134,30,77,13,71,0.00,0.50,0.13,0.15
2014-04-14 02:50:00,2,1578,71,0.02,2,2,0,2,1087,2273,318,1588,30,77,14,77,0.00,0.05,0.02,0.00
2014-04-14 03:00:00,2,1647,77,0.03,1,2,0,2,1423,2196,290,1480,77,77,0,77,0.00,0.05,0.02,0.05
2014-04-14 03:10:00,2,2091,77,0.03,1,2,0,2,1182,2909,678,2079,77,77,0,77,0.00,0.10,0.04,0.00
2014-04-14 03:20:00,2,2982,66,0.02,2,2,0,2,1601,4720,1153,2756,20,77,23,77,0.00,0.10,0.03,0.00
2014-04-14 03:30:00,2,2036,20,0.00,2,2,0,2,1153,2602,504,2149,20,20,0,20,0.00,0.00,0.00,0.00
2014-04-14 03:40:00,2,1515,75,0.10,2,2,0,2,840,4085,886,1332,71,77,3,77,0.00,0.40,0.11,0.08
2014-04-14 03:50:00,2,2547,37,0.01,1,2,0,2,1079,4656,1068,2873,20,71,24,20,0.00,0.05,0.02,0.00
2014-04-14 04:00:00,2,1628,67,0.32,2,2,0,2,585,3697,860,1564,10,77,19,71,0.00,1.70,0.56,0.05
2014-04-14 04:10:00,2,1259,75,0.09,2,2,0,2,580,2201,420,1172,71,77,3,77,0.00,0.25,0.08,0.08
2014-04-14 04:20:00,2,4096,37,0.01,2,2,0,2,1585,6523,1534,4018,10,77,33,10,0.00,0.05,0.02,0.00
2014-04-14 04:30:00,2,19100,10,0.00,2,2,0,2,9630,33358,6710,18504,10,10,0,10,0.00,0.00,0.00,0.00
2014-04-14 04:40:00,2,35999,0,0.00,2,2,0,2,24078,42102,5236,38130,0,0,0,0,0.00,0.00,0.00,0.00
2014-04-14 04:50:00,2,33751,0,0.00,2,2,0,2,25956,48524,6646,31956,0,0,0,0,0.00,0.00,0.00,0.00
2014-04-14 05:00:00,2,45222,0,0.00,2,2,0,2,31744,50000,5342,47500,0,0,0,0,0.00,0.00,0.00,0.00
2014-04-14 05:10:00,2,32263,0,0.00,2,2,0,2,25836,43875,5180,30703,0,0,0,0,0.00,0.00,0.00,0.00
2014-04-14 05:20:00,2,29795,0,0.00,2,2,0,2,19948,39461,6809,27329,0,0,0,0,0.00,0.00,0.00,0.00
2014-04-14 05:30:00,2,22344,0,0.00,2,2,0,2,14739,31109,4412,21728,0,0,0,0,0.00,0.00,0.00,0.00
2014-04-14 05:40:00,2,16301,0,0.00,2,2,0,2,12035,22304,3631,15066,0,0,0,0,0.00,0.00,0.00,0.00
2014-04-14 05:50:00,2,8571,4,0.00,2,2,0,2,5244,13233,2170,8176,0,10,5,0,0.00,0.00,0.00,0.00
2014-04-14 06:00:00,2,11745,10,0.00,2,2,0,2,7096,18057,3538,11316,10,10,0,10,0.00,0.00,0.00,0.00
2014-04-14 06:10:00,2,19803,2,0.00,2,2,0,2,10136,28981,6092,19320,0,10,4,0,0.00,0.00,0.00,0.00
2014-04-14 06:20:00,2,29098,0,0.00,2,2,0,2,14895,44607,9333,29891,0,0,0,0,0.00,0.00,0.00,0.00
2014-04-14 06:30:00,2,30217,0,0.00,2,2,0,2,13751,46263,9667,28660,0,0,0,0,0.00,0.00,0.00,0.00
2014-04-14 06:40:00,2,31987,0,0.00,2,2,0,2,19899,45398,9099,32064,0,0,0,0,0.00,0.00,0.00,0.00
2014-04-14 06:50:00,2,29354,0,0.00,2,2,0,2,22972,40762,6014,28076,0,0,0,0,0.00,0.00,0.00,0.00
2014-04-14 07:00:00,2,15080,0,0.00,2,2,0,2,7551,25233,5373,16197,0,0,0,0,0.00,0.00,0.00,0.00
2014-04-14 07:10:00,2,9121,2,0.00,2,2,0,2,4067,12133,2292,9912,0,10,4,0,0.00,0.00,0.00,0.00
2014-04-14 07:20:00,2,10407,10,0.00,2,2,0,2,5243,16793,3748,9668,10,10,0,10,0.00,0.00,0.00,0.00
2014-04-14 07:30:00,2,4739,10,0.00,2,2,0,2,2726,6747,1153,4770,10,10,0,10,0.00,0.00,0.00,0.00
2014-04-14 07:40:00,2,5123,10,0.00,2,2,0,2,3546,6080,739,5127,10,10,0,10,0.00,0.00,0.00,0.00
2014-04-14 07:50:00,2,8833,10,0.00,2,2,0,2,5192,13001,2327,9122,10,10,0,10,0.00,0.00,0.00,0.00
2014-04-14 08:00:00,2,5249,10,0.00,2,2,0,2,3269,7458,1369,4926,10,10,0,10,0.00,0.00,0.00,0.00
2014-04-14 08:10:00,2,4846,10,0.00,2,2,0,2,3055,7075,1172,4648,10,10,0,10,0.00,0.00,0.00,0.00
2014-04-14 08:20:00,2,3625,10,0.00,2,2,0,2,2488,5634,1075,3362,10,10,0,10,0.00,0.00,0.00,0.00
2014-04-14 08:30:00,2,2377,10,0.00,2,2,0,2,1833,3323,432,2376,10,10,0,10,0.00,0.00,0.00,0.00
2014-04-14 08:40:00,2,1203,38,0.21,2,2,0,2,778,1606,311,1230,10,41,9,41,0.00,0.50,0.15,0.20
2014-04-14 08:50:00,2,1299,60,0.23,2,2,0,2,991,2183,325,1211,41,77,15,71,0.05,0.40,0.11,0.20
2014-04-14 09:00:00,2,1499,52,0.24,2,2,0,2,1157,1948,228,1474,0,77,28,59,0.00,0.45,0.15,0.28
2014-04-14 09:10:00,2,1446,41,0.44,2,2,0,2,1038,1921,307,1412,41,41,0,41,0.05,0.80,0.26,0.45
2014-04-14 09:20:00,2,1610,35,0.34,2,2,0,2,1175,2527,465,1392,10,41,12,41,0.00,0.90,0.26,0.33
2014-04-14 09:30:00,2,1459,55,0.31,2,2,0,2,899,2772,564,1214,10,77,22,56,0.00,0.50,0.14,0.33
2014-04-14 09:40:00,2,2104,59,0.14,2,2,0,2,1093,4122,993,1729,0,77,27,71,0.00,0.35,0.12,0.10
2014-04-14 09:50:00,2,6296,10,0.00,2,2,0,2,2743,10886,2145,6590,10,10,0,10,0.00,0.00,0.00,0.00
2014-04-14 10:00:00,2,9837,10,0.00,2,2,0,2,6734,14883,2345,9598,10,10,0,10,0.00,0.00,0.00,0.00
2014-04-14 10:10:00,2,8702,10,0.00,2,2,0,2,4033,13130,2242,9100,10,10,0,10,0.00,0.00,0.00,0.00
2014-04-14 10:20:00,2,8582,10,0.00,2,2,0,2,5800,13455,2285,7836,10,10,0,10,0.00,0.00,0.00,0.00
2014-04-14 10:30:00,2,14052,10,0.00,2,2,0,2,7428,25997,5473,12316,10,10,0,10,0.00,0.00,0.00,0.00
2014-04-14 10:40:00,2,19780,0,0.00,2,2,0,2,14774,26328,3886,19798,0,0,0,0,0.00,0.00,0.00,0.00
2014-04-14 10:50:00,2,10836,0,0.00,2,2,0,2,7854,17068,2717,9820,0,0,0,0,0.00,0.00,0.00,0.00
2014-04-14 11:00:00,2,7790,6,0.00,2,2,0,2,4270,10394,1639,8150,0,10,5,10,0.00,0.00,0.00,0.00
2014-04-14 11:10:00,2,9016,10,0.00,2,2,0,2,5536,13396,2482,8316,10,10,0,10,0.00,0.00,0.00,0.00
2014-04-14 11:20:00,2,9651,10,0.00,2,2,0,2,3726,16772,4084,10788,10,10,0,10,0.00,0.00,0.00,0.00
2014-04-14 11:30:00,2,5413,10,0.00,2,2,0,2,3737,6894,848,5182,10,10,0,10,0.00,0.00,0.00,0.00
2014-04-14 11:40:00,2,8801,10,0.00,2,2,0,2,5290,13592,2700,8945,10,10,0,10,0.00,0.00,0.00,0.00
2014-04-14 11:50:00,2,4583,22,0.01,2,2,0,2,1378,7547,1867,4608,10,71,24,10,0.00,0.05,0.02,0.00
2014-04-14 12:00:00,2,4792,37,0.01,2,2,0,2,2493,6655,1271,4832,10,77,33,10,0.00,0.05,0.02,0.00
2014-04-14 12:10:00,2,5133,10,0.00,2,2,0,2,2780,7776,1474,5184,10,10,0,10,0.00,0.00,0.00,0.00
2014-04-14 12:20:00,2,2292,62,0.11,2,2,0,2,1419,3484,675,2309,10,77,26,77,0.00,0.35,0.12,0.08
2014-04-14 12:30:00,2,2342,77,0.13,2,2,0,2,1265,3691,839,2353,77,77,0,77,0.00,0.30,0.10,0.10
2014-04-14 12:40:00,2,3016,77,0.07,2,2,0,2,1757,4496,792,2910,77,77,0,77,0.00,0.15,0.06,0.08
2014-04-14 12:50:00,2,3113,77,0.04,2,2,0,2,2212,4831,789,2900,77,77,0,77,0.00,0.10,0.04,0.05
2014-04-14 13:00:00,2,14004,17,0.00,2,2,0,2,6104,24119,5491,13378,10,77,20,10,0.00,0.00,0.00,0.00
2014-04-14 13:10:00,2,30455,2,0.00,2,2,0,2,25328,41074,4531,29522,0,10,4,0,0.00,0.00,0.00,0.00
2014-04-14 13:20:00,2,31593,0,0.00,2,2,0,2,16164,37570,5769,32982,0,0,0,0,0.00,0.00,0.00,0.00
2014-04-14 13:30:00,2,13168,0,0.00,2,2,0,2,4552,23762,6284,13460,0,0,0,0,0.00,0.00,0.00,0.00
2014-04-14 13:40:00,2,10544,9,0.00,2,2,0,2,4545,17068,4305,10320,0,10,3,10,0.00,0.00,0.00,0.00
2014-04-14 13:50:00,2,7568,10,0.00,2,2,0,2,4586,10272,1713,7802,10,10,0,10,0.00,0.00,0.00,0.00
2014-04-14 14:00:00,2,7782,10,0.00,2,2,0,2,5378,12289,1769,7360,10,10,0,10,0.00,0.00,0.00,0.00
2014-04-14 14:10:00,2,8293,10,0.00,2,2,0,2,5261,11516,2098,8086,10,10,0,10,0.00,0.00,0.00,0.00
2014-04-14 14:20:00,2,9786,10,0.00,2,2,0,2,6839,15818,2567,9448,10,10,0,10,0.00,0.00,0.00,0.00
2014-04-14 14:30:00,2,7474,10,0.00,2,2,0,2,5091,12295,2158,6547,10,10,0,10,0.00,0.00,0.00,0.00
2014-04-14 14:40:00,2,5994,10,0.00,2,2,0,2,3718,8444,1535,5954,10,10,0,10,0.00,0.00,0.00,0.00
2014-04-14 14:50:00,2,4662,69,0.01,2,2,0,2,2704,6797,1201,4384,10,77,20,77,0.00,0.05,0.02,0.00
2014-04-14 15:00:00,2,5260,49,0.01,2,2,0,2,2346,8676,2016,5604,10,77,32,71,0.00,0.05,0.02,0.00
2014-04-14 15:10:00,2,3387,77,0.04,2,2,0,2,1739,5447,1161,3204,77,77,0,77,0.00,0.10,0.04,0.03
2014-04-14 15:20:00,2,8245,10,0.00,2,2,0,2,3506,18112,4196,6586,10,10,0,10,0.00,0.00,0.00,0.00
2014-04-14 15:30:00,2,10273,7,0.00,2,2,0,2,6016,17320,3424,9370,0,10,5,10,0.00,0.00,0.00,0.00
2014-04-14 15:40:00,2,5228,10,0.00,2,2,0,2,3528,6683,905,5274,10,10,0,10,0.00,0.00,0.00,0.00
2014-04-14 15:50:00,2,5776,10,0.00,2,2,0,2,3789,7545,1278,5660,10,10,0,10,0.00,0.00,0.00,0.00
2014-04-14 16:00:00,2,2054,62,0.32,2,2,0,2,1157,3681,777,1736,10,77,26,77,0.00,0.70,0.22,0.35
2014-04-14 16:10:00,2,1773,76,0.29,2,2,0,2,1419,2654,342,1705,71,77,2,77,0.05,1.00,0.28,0.17
2014-04-14 16:20:00,2,1532,76,0.57,2,2,0,2,1020,2277,359,1546,71,77,2,77,0.10,1.55,0.41,0.48
2014-04-14 16:30:00,2,1511,75,0.40,2,2,0,2,964,2125,339,1406,71,77,2,77,0.05,0.70,0.20,0.40
2014-04-14 16:40:00,2,1102,77,0.78,2,2,0,2,834,1547,191,1072,77,77,0,77,0.20,1.45,0.35,0.82
2014-04-14 16:50:00,2,808,72,3.48,2,2,0,2,639,998,128,823,71,77,2,71,1.95,5.45,0.90,3.40
2014-04-14 17:00:00,2,901,71,2.92,2,2,0,2,678,1231,171,888,71,72,0,71,0.75,5.15,1.38,3.20
2014-04-14 17:10:00,2,1663,74,0.27,2,2,0,2,1339,2259,269,1564,71,77,3,74,0.05,0.55,0.15,0.23
2014-04-14 17:20:00,2,1532,76,0.55,2,2,0,2,1324,1775,150,1546,71,77,2,77,0.15,1.50,0.38,0.53
2014-04-14 17:30:00,2,1429,77,0.72,2,2,0,2,973,2007,289,1399,77,77,0,77,0.25,1.60,0.49,0.55
2014-04-14 17:40:00,2,1910,75,0.17,2,2,0,2,1548,2413,279,1912,71,77,3,77,0.10,0.35,0.08,0.15
2014-04-14 17:50:00,2,2164,74,0.65,2,2,0,2,1601,2613,331,2262,71,77,3,72,0.10,2.45,0.75,0.30
2014-04-14 18:00:00,2,3052,73,0.55,2,2,0,2,1982,4858,810,3061,71,77,2,72,0.05,1.60,0.45,0.40
2014-04-14 18:10:00,2,2697,72,3.63,2,2,0,2,174,4992,1566,3133,71,77,2,71,0.15,25.35,7.54,0.45
2014-04-14 18:20:00,2,218,72,11.35,2,2,0,2,136,321,46,224,71,73,1,72,7.70,20.35,3.42,10.88
2014-04-14 18:30:00,2,196,73,14.00,2,2,0,2,149,261,36,196,73,73,0,73,9.60,19.55,3.34,13.50
2014-04-14 18:40:00,2,257,73,11.45,2,2,0,2,156,416,71,240,73,73,0,73,7.20,21.05,3.66,11.28
2014-04-14 18:50:00,2,194,73,13.26,2,2,0,2,143,263,40,190,73,73,0,73,5.80,18.60,4.03,14.07
2014-04-14 19:00:00,2,285,73,7.40,2,2,0,2,177,378,61,260,73,73,0,73,4.45,12.15,2.70,6.80
2014-04-14 19:10:00,2,417,72,4.05,2,2,0,2,298,573,77,406,72,73,0,72,1.95,6.70,1.48,4.00
2014-04-14 19:20:00,2,789,71,1.64,2,2,0,2,518,1202,230,732,71,72,0,71,0.70,2.70,0.53,1.68
2014-04-14 19:30:00,2,734,71,2.14,2,2,0,2,441,952,127,747,71,71,0,71,1.20,3.60,0.69,2.00
2014-04-14 19:40:00,2,559,72,2.51,2,2,0,2,365,863,169,520,71,72,0,72,1.50,4.35,0.74,2.40
2014-04-14 19:50:00,2,334,73,5.87,2,2,0,2,164,533,101,306,72,73,0,73,1.75,19.55,4.79,4.35
2014-04-14 20:00:00,2,273,73,8.00,2,2,0,2,174,449,97,226,73,73,0,73,2.75,15.25,3.85,8.70
2014-04-14 20:10:00,2,410,73,3.76,2,2,0,2,312,577,79,387,72,73,0,73,2.20,6.15,1.09,3.67
2014-04-14 20:20:00,2,462,72,3.65,2,2,0,2,281,801,150,439,72,73,0,72,0.80,6.10,1.64,3.35
2014-04-14 20:30:00,2,1236,72,0.89,2,2,0,2,729,1860,330,1201,71,77,2,71,0.40,2.20,0.51,0.80
2014-04-14 20:40:00,2,1644,77,0.35,2,2,0,2,1109,2209,306,1695,77,77,0,77,0.20,0.75,0.16,0.33
2014-04-14 20:50:00,2,2454,54,0.17,2,2,0,2,882,4604,1233,1996,10,77,29,71,0.00,0.80,0.25,0.03
2014-04-14 21:00:00,2,6468,57,0.00,2,2,0,2,3176,9611,1900,6211,10,78,31,78,0.00,0.00,0.00,0.00
2014-04-14 21:10:00,2,4458,28,0.01,2,2,0,2,1103,11409,2807,3418,10,71,28,10,0.00,0.05,0.02,0.00
2014-04-14 21:20:00,2,4336,68,0.01,2,2,0,2,3274,6069,785,4258,10,77,20,74,0.00,0.05,0.02,0.00
2014-04-14 21:30:00,2,5161,10,0.00,2,2,0,2,1767,9842,2030,4538,10,10,0,10,0.00,0.00,0.00,0.00
2014-04-14 21:40:00,2,4345,49,0.00,2,2,0,2,2458,6720,1170,4294,10,78,32,71,0.00,0.00,0.00,0.00
2014-04-14 21:50:00,2,14181,44,0.00,2,2,0,2,7698,26911,5640,12944,10,78,34,44,0.00,0.00,0.00,0.00
2014-04-14 22:00:00,2,21673,1,0.00,2,2,0,2,7711,35633,9202,21384,0,10,3,0,0.00,0.00,0.00,0.00
2014-04-14 22:10:00,2,10355,0,0.00,2,2,0,2,6280,14521,2526,9936,0,0,0,0,0.00,0.00,0.00,0.00
2014-04-14 22:20:00,2,14365,0,0.00,2,2,0,2,11321,19194,2662,13670,0,0,0,0,0.00,0.00,0.00,0.00
2014-04-14 22:30:00,2,8922,3,0.00,2,2,0,2,6043,12900,1954,8666,0,10,5,0,0.00,0.00,0.00,0.00
2014-04-14 22:40:00,2,12227,10,0.00,2,2,0,2,8174,17254,3005,12010,10,10,0,10,0.00,0.00,0.00,0.00
2014-04-14 22:50:00,2,26413,0,0.00,2,2,0,2,19248,37917,6769,23993,0,0,0,0,0.00,0.00,0.00,0.00
2014-04-14 23:00:00,2,33004,0,0.00,2,2,0,2,20827,41844,6489,33112,0,0,0,0,0.00,0.00,0.00,0.00
2014-04-14 23:10:00,2,32128,0,0.00,2,2,0,2,25868,43338,6120,30780,0,0,0,0,0.00,0.00,0.00,0.00
2014-04-14 23:20:00,2,23861,0,0.00,2,2,0,2,7484,35386,9743,27052,0,0,0,0,0.00,0.00,0.00,0.00
2014-04-14 23:30:00,2,3149,13,0.00,1,2,0,2,0,9759,2969,2089,0,71,21,10,0.00,0.00,0.00,0.00
2014-04-14 23:40:00,1,1072,77,0.43,1,2,0,1,851,1292,220,1072,77,77,0,77,0.00,0.85,0.43,0.43
2014-04-14 23:50:00,1,,,,1,1,0,1,,,,,,,,,,,,
